Temperature
21 20 20 19 18 19 21 22 23 23 23 23 23 23 22 21 21 21 20 21 21 20 20 19 20 20 20 20 20 20 20 20 19 19 19 19 19 18 18 18 18 18 18 18 18 18 18 17 17
21 20 20 19 19 20 21 22 23 23 23 23 23 22 21 21 21 21 20 20 21 20 20 20 20 20 20 20 20 20 20 20 19 19 19 19 19 18 18 18 18 18 18 18 18 18 17 17 17
21 20 19 18 19 20 22 23 23 24 24 23 22 22 21 21 21 20 20 20 20 20 20 20 19 20 20 20 20 20 20 19 19 19 19 19 19 18 18 18 18 18 18 18 18 18 17 17 17
21 20 19 18 20 21 23 24 24 23 23 23 22 21 21 21 21 21 21 20 20 20 20 20 19 19 20 20 20 20 20 19 19 19 19 19 18 18 18 18 18 18 18 17 17 17 17 17 17
21 20 19 19 20 22 23 24 24 24 23 23 22 21 20 21 21 21 21 20 20 20 20 20 19 19 20 20 20 19 19 19 19 19 18 18 18 18 18 18 18 18 18 18 17 17 17 17 17
21 19 19 19 21 23 24 25 25 24 23 22 22 20 20 21 21 21 21 20 20 20 20 19 19 19 19 19 19 19 19 19 19 18 18 18 18 18 18 18 18 18 18 17 17 17 17 17 17
21 18 20 21 22 24 25 26 25 23 22 22 22 20 20 20 20 21 20 20 20 20 19 19 19 19 19 19 19 19 19 19 19 18 18 18 18 18 18 18 18 18 18 17 17 17 17 17 17
22 18 20 20 22 24 25 25 25 24 23 23 22 20 20 21 20 20 20 19 19 19 19 19 19 19 19 19 19 19 19 18 18 18 18 18 18 18 17 17 17 17 17 17 17 17 17 17 17
22 19 19 21 23 25 25 25 25 24 23 22 22 22 22 21 20 19 19 18 18 18 18 19 19 19 19 18 18 18 18 18 18 18 18 18 17 17 17 17 17 17 17 17 17 17 17 17 17
21 19 20 22 24 25 25 25 24 23 22 21 21 21 21 20 19 19 19 18 18 18 18 18 19 19 18 18 18 18 18 18 18 18 17 17 17 17 17 17 17 17 17 17 17 17 17 17 17
21 20 22 23 25 25 25 25 24 23 21 22 22 21 20 20 19 19 18 18 18 18 18 18 18 18 18 18 18 18 18 18 18 17 17 17 17 17 17 17 17 17 17 17 17 17 17 17 17
21 21 23 25 26 26 25 25 23 23 23 24 24 22 21 19 18 18 18 18 18 18 18 18 18 18 18 18 18 18 18 18 18 17 17 17 17 17 17 17 17 17 17 17 17 17 17 17 17
23 23 25 26 26 25 25 23 23 22 23 23 22 21 20 19 18 18 18 18 18 17 17 18 18 18 18 18 18 18 18 18 18 17 17 17 17 17 17 17 17 16 16 16 16 16 16 16 16
24 24 24 25 26 25 24 23 22 21 22 21 21 20 19 19 18 18 18 18 18 18 18 18 18 18 18 18 18 18 18 18 17 17 17 17 17 17 17 17 17 16 16 16 16 16 16 16 16
24 23 23 24 25 25 24 23 21 21 21 20 19 19 18 19 18 18 18 18 18 18 18 18 18 18 18 18 18 18 18 17 17 17 17 17 17 17 17 16 16 16 16 16 16 16 16 16 16
23 22 22 23 24 24 25 23 22 21 20 19 18 18 18 18 18 18 18 18 18 18 18 18 18 18 17 17 17 17 17 17 17 17 17 17 17 17 16 16 16 16 16 16 16 16 16 16 16
21 21 22 23 24 24 23 22 21 20 20 18 18 18 18 18 18 18 18 18 18 18 18 18 17 17 17 17 17 17 17 17 17 17 17 17 17 16 16 16 16 16 15 15 16 16 16 16 16
22 22 22 22 23 23 22 21 20 19 19 18 18 18 17 18 18 18 18 18 18 18 17 17 17 17 17 17 17 17 17 17 17 17 17 17 16 16 16 16 16 15 15 15 15 15 15 15 15
22 22 21 22 23 22 21 21 20 19 19 18 18 17 17 18 18 18 18 18 18 17 17 17 17 17 17 17 17 17 17 17 17 17 16 16 16 16 16 16 15 15 15 15 15 15 15 15 15
22 22 21 22 23 22 21 20 20 19 19 18 18 17 17 17 17 17 17 18 17 17 17 17 17 17 17 17 17 17 17 17 17 16 16 16 16 16 16 15 15 15 15 15 15 15 15 15 15
23 22 22 22 22 21 21 21 20 19 19 18 18 18 17 17 17 17 17 17 17 17 17 17 17 17 17 17 17 17 17 17 16 16 16 16 16 16 16 15 15 15 15 15 15 15 15 15 15
22 23 23 23 21 20 20 20 20 19 18 18 18 18 17 17 17 17 17 17 17 17 17 17 17 17 17 17 17 17 17 17 17 16 16 16 16 15 15 15 15 15 15 15 15 15 15 15 15
23 22 22 21 20 19 19 19 19 18 19 18 17 18 18 18 18 18 18 17 17 17 17 17 17 16 17 17 17 17 17 17 17 16 16 16 16 15 15 15 15 15 15 15 15 15 15 15 15
23 22 20 17 17 20 20 19 19 18 19 19 18 18 18 18 18 18 18 17 17 17 17 17 17 16 17 17 17 17 17 17 17 17 16 16 16 15 15 15 15 15 15 15 15 15 15 15 15
23 20 19 20 18 19 18 18 18 19 19 19 18 18 18 18 18 17 17 17 17 17 17 17 17 17 17 17 17 17 17 17 17 17 16 16 16 16 15 15 15 15 15 15 15 15 15 15 15
21 20 20 20 19 19 18 18 19 20 20 20 19 19 18 18 18 18 18 18 18 17 17 17 17 17 17 17 17 17 17 17 17 17 16 16 16 16 16 15 15 15 15 15 15 15 15 15 15
21 20 19 18 19 19 18 18 19 20 19 19 18 18 18 18 18 18 18 18 18 18 17 17 17 17 17 17 17 17 17 17 16 16 16 16 16 16 16 16 15 15 15 15 15 15 15 15 15
22 19 17 18 19 19 20 19 19 20 19 19 18 18 18 19 19 19 19 18 18 18 18 17 17 17 17 17 17 17 17 17 16 16 16 16 16 16 16 16 15 15 15 15 15 15 15 15 15
21 20 18 16 17 18 19 19 19 19 19 19 18 19 19 19 19 19 19 19 18 18 18 18 17 17 17 17 17 17 17 17 17 16 16 16 16 16 16 16 16 15 15 15 15 15 15 15 15
21 20 17 19 18 17 17 19 20 19 18 18 18 19 19 20 19 19 19 19 19 18 18 18 17 17 17 17 17 17 17 16 16 16 16 16 16 16 16 16 16 16 15 15 15 15 15 15 15
Wind_Speed
6 5 2 1 3 3 3 4 3 2 1 1 3 4 5 4 4 3 2 12 16 16 17 20 21 20 20 20 19 19 18 18 17 17 17 16 15 15 14 14 13 12 12 12 12 12 12 12 13
5 3 1 2 4 2 5 4 4 4 4 4 3 3 3 1 1 5 6 10 17 16 17 19 21 21 20 20 19 18 18 17 17 16 16 15 14 14 14 13 12 12 12 12 12 12 12 12 12
3 2 3 3 2 3 5 4 4 3 5 3 3 2 2 2 4 6 7 13 15 14 17 20 23 21 20 19 19 18 17 17 16 15 15 14 13 13 13 12 12 12 11 12 12 12 12 11 11
2 3 4 3 3 6 5 5 4 6 3 1 3 2 1 1 5 6 13 15 15 12 16 20 23 21 20 19 18 18 17 16 15 14 14 13 12 12 12 11 11 11 11 11 11 11 11 10 10
3 4 4 3 6 6 6 6 8 7 6 3 5 4 1 2 6 13 16 16 16 13 14 19 22 21 20 19 18 18 17 16 15 14 13 12 11 11 11 10 10 10 10 10 9 9 9 9 9
4 4 3 4 6 6 3 5 7 6 4 4 5 4 1 2 9 13 15 14 14 14 13 18 22 21 20 19 18 18 17 15 14 13 12 12 11 10 10 9 9 9 8 8 8 8 8 8 7
4 3 1 4 5 5 2 3 6 7 6 6 7 6 1 4 7 12 12 11 11 11 11 13 17 19 20 19 18 18 16 15 14 13 12 11 10 10 9 8 8 7 7 7 7 6 6 6 6
5 4 2 4 4 5 2 2 2 5 5 5 7 7 6 7 10 11 11 10 10 10 9 9 12 14 15 16 18 17 16 15 14 12 11 11 10 9 8 7 7 6 6 5 5 5 5 5 5
4 3 3 5 5 5 2 1 1 2 5 3 3 4 4 15 15 13 11 9 10 11 9 8 9 11 12 13 16 16 15 14 13 12 11 10 7 6 6 5 6 6 5 5 4 4 4 4 4
4 3 7 6 5 5 4 4 5 4 3 2 1 4 12 17 17 16 16 15 14 13 11 8 9 9 11 12 11 10 11 11 9 8 8 8 6 5 4 4 5 5 4 4 3 3 3 4 4
7 7 6 7 7 5 4 3 5 7 6 8 8 11 17 18 16 16 14 13 13 12 11 8 8 9 8 6 8 7 8 8 7 7 7 7 6 4 3 2 2 2 2 2 2 3 3 3 2
6 9 7 7 5 4 4 4 3 6 6 5 9 15 18 18 16 15 14 12 10 11 10 9 7 7 7 7 7 7 6 6 6 6 7 7 5 4 3 3 2 2 2 2 3 3 3 3 2
6 6 6 7 8 4 2 2 3 3 1 7 13 15 16 15 12 9 9 9 9 10 9 9 8 7 6 6 6 6 6 6 6 6 7 8 5 4 3 3 3 2 2 2 2 2 3 3 3
5 7 9 8 5 2 3 1 2 2 6 11 13 13 13 13 13 11 10 11 11 11 11 9 9 7 6 5 5 5 6 7 7 6 7 8 7 5 4 3 3 2 2 2 3 3 3 2 3
5 7 9 4 2 1 4 1 3 4 9 10 11 11 10 10 10 12 13 12 12 11 10 10 10 8 7 6 6 6 7 8 6 6 7 8 8 7 5 4 2 2 3 4 4 4 4 3 2
4 5 7 8 3 2 3 6 4 7 10 9 9 10 10 8 9 9 10 10 10 10 10 10 10 9 7 6 5 5 7 7 6 7 7 8 8 8 6 4 3 3 4 4 3 3 3 3 3
6 5 6 9 4 2 1 6 2 6 8 8 8 9 10 8 7 8 9 10 10 11 10 9 8 9 8 7 6 6 6 6 6 7 7 7 8 8 7 4 4 5 4 3 3 3 2 3 3
5 6 6 8 6 4 3 5 1 5 7 7 7 7 8 9 9 8 7 8 9 9 9 9 8 9 8 6 5 4 4 3 5 5 6 7 8 8 8 5 5 5 4 3 3 3 3 3 2
5 5 10 11 6 2 4 3 2 4 6 7 7 7 8 8 5 5 7 7 7 8 8 8 8 8 8 6 5 5 4 3 3 3 6 7 8 9 8 5 5 4 4 3 4 3 4 3 2
5 7 8 9 4 2 3 3 2 3 5 6 7 8 9 7 5 6 6 7 8 9 9 9 9 9 9 7 5 4 4 3 3 2 4 6 8 8 7 6 5 4 4 4 3 3 3 2 2
5 5 7 7 4 4 3 4 2 0 0 2 5 6 6 9 10 9 8 7 8 9 10 10 10 9 8 7 6 5 5 4 3 2 2 3 6 7 8 8 6 5 4 4 3 4 4 3 2
7 6 5 3 1 4 3 4 5 2 2 4 6 6 7 7 7 8 8 8 9 9 8 9 9 8 8 9 9 9 6 5 5 4 3 3 5 6 8 8 7 5 4 4 3 3 3 4 2
7 1 2 2 2 2 3 1 7 1 3 6 7 8 9 8 9 9 9 8 8 8 9 8 9 8 8 9 11 10 6 5 4 4 5 3 2 4 6 7 6 5 4 4 4 3 3 3 3
3 5 6 5 5 2 2 1 7 4 6 5 7 8 8 9 9 7 6 6 6 6 7 8 10 9 9 10 10 10 9 8 7 6 6 4 2 2 4 6 6 5 4 4 4 3 4 3 3
4 5 4 5 5 5 2 2 9 7 6 6 8 10 9 9 9 9 8 8 7 7 8 9 10 10 9 10 10 10 10 10 9 8 7 6 4 3 5 5 5 4 4 5 4 4 3 3 3
6 9 7 5 5 6 2 5 8 5 4 4 5 7 9 9 9 9 10 9 9 8 9 9 10 10 10 10 9 9 9 7 6 7 7 7 6 5 5 6 6 6 6 6 5 3 3 3 3
7 5 7 7 3 2 6 7 9 2 1 2 3 6 9 10 10 10 9 9 8 9 9 10 10 9 10 10 9 9 8 8 8 7 6 5 5 4 6 6 6 6 6 6 5 4 4 4 3
5 9 6 6 5 4 6 5 5 6 5 4 5 6 7 8 9 9 9 8 8 8 8 8 9 9 8 9 9 9 8 8 8 7 7 7 6 5 6 7 7 6 6 6 6 4 4 5 4
5 5 5 5 5 6 4 8 7 9 7 8 8 7 7 8 9 9 8 8 8 7 8 8 8 8 8 9 8 8 8 8 7 7 7 7 6 7 7 7 7 7 7 7 7 6 6 6 5
6 8 9 6 6 6 5 9 6 6 5 6 6 7 6 7 7 7 8 8 8 8 9 9 9 9 9 9 8 8 7 7 7 7 6 6 7 7 7 7 7 7 8 8 8 8 8 8 8
Wind_Direction
183 160 145 131 63 45 286 253 226 197 201 198 150 148 156 163 178 208 122 143 140 146 155 156 151 147 143 140 137 134 131 129 128 128 128 128 129 128 127 126 124 121 118 116 113 113 112 113 114
144 150 128 64 77 22 285 243 217 205 174 129 96 97 107 150 97 117 133 145 143 146 151 156 154 151 148 145 142 138 135 134 133 132 131 131 130 130 129 127 125 122 120 119 117 115 113 114 116
158 165 92 70 116 204 252 239 200 146 156 148 119 81 138 173 148 151 156 145 140 145 151 158 156 154 151 149 146 142 140 138 137 136 135 134 133 130 130 128 126 124 121 119 117 116 115 116 119
128 68 62 65 255 238 233 234 166 140 168 143 129 129 110 62 155 152 144 145 143 146 151 159 158 157 155 153 150 147 145 143 142 142 140 138 137 135 132 130 128 126 123 119 118 117 116 116 117
71 80 49 340 271 258 242 214 171 166 172 161 148 159 188 16 122 136 145 149 149 147 152 161 160 159 158 156 154 151 150 149 148 147 146 144 142 139 137 133 130 129 127 123 119 119 117 113 110
62 68 62 300 284 278 260 188 160 157 158 154 153 153 227 100 133 143 148 151 152 151 153 161 162 161 160 160 158 155 154 154 153 152 150 149 149 146 143 140 136 134 131 127 125 122 116 110 107
114 103 210 265 284 294 262 151 160 160 169 180 160 146 189 154 149 142 142 141 146 149 151 156 162 163 164 163 161 159 159 159 157 157 157 157 155 153 152 148 144 142 139 135 131 125 114 106 106
138 107 285 270 262 272 243 126 191 164 171 145 144 162 199 173 147 135 133 135 142 148 151 153 156 159 161 165 164 163 162 162 162 163 163 163 163 161 159 156 156 154 150 144 138 129 116 104 101
115 79 253 240 234 260 210 166 191 114 122 138 180 186 164 141 142 140 141 143 154 158 155 155 152 152 156 161 167 165 165 167 167 169 170 164 155 152 153 163 170 165 162 158 149 133 119 102 88
121 179 237 226 223 254 258 212 182 147 154 186 147 107 133 144 153 158 164 167 168 167 163 159 154 151 155 164 161 158 158 161 159 162 160 150 147 152 157 175 178 173 168 160 147 122 93 87 79
176 211 248 258 240 236 239 222 172 158 204 212 195 163 152 156 163 168 173 172 169 165 163 158 155 153 154 150 147 144 140 144 147 152 147 141 137 138 135 137 135 130 131 102 88 75 65 77 87
204 245 244 271 267 241 221 186 172 187 224 212 172 154 156 165 172 175 174 170 164 164 163 160 159 154 152 148 148 143 139 144 148 153 154 145 136 132 130 123 104 88 95 94 82 69 62 70 80
229 264 261 255 270 250 207 183 176 218 172 117 134 146 160 167 168 168 162 160 160 163 167 164 160 161 154 146 151 149 148 152 154 153 159 157 148 141 136 127 115 101 107 111 94 72 66 68 69
264 278 288 283 271 227 159 159 132 214 126 127 141 155 165 169 168 165 163 169 173 172 174 169 168 164 152 151 147 149 152 151 148 152 157 159 154 147 142 133 125 123 135 135 113 97 88 78 76
308 320 323 320 316 259 121 350 220 177 138 139 148 155 162 168 171 176 177 177 177 176 174 170 169 159 158 157 157 152 151 150 147 148 153 155 154 150 144 131 127 144 145 125 104 87 80 77 76
2 14 336 310 328 302 145 260 245 159 150 152 156 160 167 176 184 183 179 179 177 175 173 173 176 163 164 162 154 145 148 147 144 146 150 154 155 153 141 131 135 142 133 122 108 87 79 69 72
25 354 309 308 322 352 221 254 240 165 158 159 164 167 174 178 188 187 182 179 178 178 174 170 166 163 166 160 148 139 140 139 139 142 143 149 150 152 143 135 133 135 122 111 109 78 89 87 78
306 313 300 297 300 330 280 262 250 169 165 170 170 169 178 189 195 186 178 174 172 168 167 165 160 159 154 142 128 121 119 121 126 135 141 143 144 146 137 128 126 130 116 104 97 94 75 78 84
255 270 283 283 295 300 279 278 257 172 175 178 180 180 189 197 183 168 170 169 165 165 162 162 158 159 152 147 146 144 148 140 130 135 143 144 143 144 135 126 121 124 123 127 124 106 87 64 56
247 279 284 296 345 16 324 308 254 190 202 195 191 191 192 183 175 179 178 172 175 175 171 163 165 164 166 162 153 144 132 129 124 123 129 143 144 146 142 136 135 131 122 113 115 120 110 72 52
284 247 261 276 327 22 4 325 290 271 193 191 192 194 197 190 185 184 185 188 182 181 178 173 168 166 163 149 130 117 96 88 102 122 130 145 152 149 143 145 141 139 134 135 134 133 131 128 65
275 257 243 267 346 312 9 295 289 250 251 217 207 200 203 197 186 183 184 185 186 183 173 169 167 163 160 153 153 156 157 160 173 161 152 144 148 148 148 148 145 143 139 140 143 133 132 134 133
228 335 66 62 122 348 2 224 291 292 246 231 219 208 203 196 189 187 186 186 185 176 170 171 168 166 166 163 165 163 158 153 141 138 143 142 131 145 152 152 147 144 145 147 137 131 132 132 146
171 67 52 51 65 331 295 205 281 242 230 229 213 204 198 195 190 184 175 169 174 170 170 168 167 169 169 167 169 168 162 154 149 154 157 153 145 149 162 159 156 155 152 155 152 146 139 136 137
124 94 18 350 358 265 274 240 253 247 224 214 210 204 197 192 184 177 171 173 175 174 178 176 173 174 173 172 175 172 168 165 167 169 171 165 170 186 190 171 168 169 173 167 156 152 153 152 151
177 149 164 211 236 279 301 248 256 252 241 224 206 190 183 187 185 182 180 179 178 178 178 174 176 179 177 177 177 170 168 170 174 175 173 179 188 193 184 182 185 185 180 174 165 162 171 168 170
146 172 163 140 161 272 281 282 300 242 204 183 178 174 176 181 184 184 181 179 177 178 181 177 175 176 177 178 171 171 172 174 177 178 178 183 188 187 183 186 190 192 188 182 171 181 189 180 190
150 145 111 129 157 246 285 278 255 254 223 194 187 187 182 174 180 183 183 182 181 179 174 169 171 175 173 175 176 181 178 180 178 173 182 189 193 189 183 191 195 196 196 190 184 189 195 191 202
127 125 122 128 157 169 242 268 229 224 208 192 193 190 178 176 182 185 184 182 174 166 166 171 173 169 170 176 177 175 176 178 175 184 194 195 197 195 197 199 198 201 203 198 197 206 198 203 212
178 176 154 164 212 185 191 263 266 218 200 181 181 179 174 175 178 176 175 170 169 172 174 177 177 178 178 174 172 176 172 173 180 193 198 195 202 204 204 200 202 208 208 203 205 214 211 212 219
Height
1505 1505 1506 1508 1510 1515 1514 1505 1499 1497 1496 1495 1495 1496 1497 1499 1503 1506 1499 1500 1505 1510 1515 1519 1523 1526 1529 1531 1533 1534 1536 1538 1539 1540 1542 1543 1544 1545 1546 1547 1548 1549 1549 1550 1551 1551 1552 1552 1553
1505 1506 1507 1508 1514 1522 1514 1500 1498 1495 1494 1494 1495 1496 1497 1497 1497 1497 1497 1501 1506 1511 1515 1520 1524 1527 1529 1532 1534 1536 1537 1539 1540 1542 1543 1545 1546 1547 1548 1549 1550 1550 1551 1552 1552 1553 1554 1554 1555
1505 1506 1508 1509 1515 1518 1509 1496 1494 1493 1494 1495 1495 1496 1497 1497 1496 1496 1498 1502 1507 1512 1516 1520 1524 1527 1530 1533 1535 1537 1539 1540 1542 1543 1545 1546 1547 1549 1550 1550 1551 1552 1553 1553 1554 1555 1555 1556 1557
1506 1508 1509 1513 1513 1506 1498 1492 1491 1493 1495 1495 1495 1497 1496 1497 1496 1497 1499 1503 1508 1513 1517 1521 1525 1528 1531 1533 1536 1538 1540 1541 1543 1545 1546 1548 1549 1550 1551 1552 1553 1554 1555 1555 1556 1556 1557 1558 1559
1506 1507 1512 1517 1511 1499 1491 1488 1489 1491 1492 1493 1494 1495 1495 1496 1496 1498 1500 1504 1508 1513 1518 1522 1525 1529 1531 1534 1536 1539 1541 1542 1544 1546 1547 1549 1550 1552 1553 1554 1554 1555 1556 1557 1558 1558 1559 1560 1561
1507 1508 1518 1520 1508 1494 1488 1486 1488 1490 1491 1492 1494 1495 1495 1495 1496 1499 1502 1505 1510 1514 1518 1522 1526 1529 1532 1535 1537 1539 1541 1543 1545 1547 1549 1550 1552 1553 1554 1555 1556 1557 1557 1558 1559 1560 1561 1562 1563
1507 1511 1516 1513 1506 1496 1488 1486 1487 1489 1490 1491 1491 1494 1494 1495 1497 1499 1503 1506 1511 1515 1518 1522 1526 1529 1533 1535 1538 1540 1542 1544 1546 1548 1549 1551 1553 1554 1555 1556 1557 1558 1559 1560 1560 1561 1562 1563 1564
1505 1510 1512 1511 1505 1496 1488 1487 1487 1488 1489 1490 1491 1491 1491 1493 1496 1499 1503 1506 1511 1515 1518 1522 1526 1529 1533 1536 1538 1541 1543 1545 1547 1549 1550 1552 1554 1555 1556 1557 1558 1559 1560 1561 1562 1563 1563 1564 1565
1505 1513 1516 1507 1500 1492 1487 1487 1488 1488 1489 1489 1489 1489 1490 1491 1494 1498 1502 1506 1510 1514 1518 1522 1526 1529 1533 1536 1539 1541 1543 1546 1548 1549 1551 1553 1554 1556 1557 1558 1559 1560 1561 1561 1562 1563 1564 1565 1566
1504 1513 1506 1495 1490 1488 1485 1485 1486 1487 1488 1488 1488 1488 1488 1490 1493 1496 1500 1503 1507 1512 1517 1521 1525 1529 1532 1536 1538 1541 1544 1546 1548 1550 1551 1553 1555 1556 1557 1559 1560 1561 1561 1562 1563 1564 1565 1565 1567
1501 1503 1493 1488 1486 1485 1484 1483 1483 1485 1487 1484 1483 1484 1486 1489 1492 1495 1499 1502 1506 1512 1516 1521 1525 1529 1532 1535 1538 1541 1543 1546 1548 1550 1552 1553 1555 1556 1558 1559 1560 1561 1562 1563 1564 1564 1565 1566 1567
1498 1493 1490 1485 1483 1483 1482 1481 1482 1482 1482 1481 1482 1483 1484 1488 1491 1494 1498 1502 1506 1511 1516 1520 1524 1528 1532 1535 1538 1541 1543 1546 1548 1550 1552 1554 1555 1556 1558 1559 1560 1561 1562 1563 1564 1565 1566 1566 1568
1494 1490 1486 1483 1481 1480 1479 1480 1481 1481 1480 1480 1481 1483 1485 1488 1492 1496 1499 1503 1506 1510 1515 1519 1523 1527 1531 1534 1538 1541 1543 1546 1548 1550 1552 1554 1555 1556 1558 1559 1560 1561 1562 1564 1564 1565 1566 1567 1568
1490 1487 1483 1479 1477 1477 1478 1479 1480 1479 1480 1480 1481 1483 1486 1489 1492 1495 1498 1502 1506 1510 1514 1518 1522 1527 1531 1534 1537 1540 1543 1546 1548 1550 1551 1553 1555 1556 1558 1559 1560 1561 1562 1563 1564 1565 1566 1567 1568
1489 1487 1482 1478 1477 1477 1478 1481 1479 1478 1479 1480 1482 1484 1486 1489 1492 1494 1497 1501 1504 1508 1513 1517 1521 1525 1530 1534 1537 1540 1543 1545 1547 1549 1551 1553 1554 1556 1557 1558 1560 1561 1562 1563 1564 1565 1566 1567 1568
1490 1493 1495 1482 1478 1477 1481 1486 1477 1477 1478 1480 1482 1484 1487 1489 1492 1494 1497 1500 1503 1507 1511 1516 1520 1524 1529 1533 1536 1540 1543 1545 1547 1549 1550 1552 1554 1555 1556 1558 1559 1561 1562 1563 1564 1565 1566 1567 1568
1500 1506 1501 1489 1478 1478 1481 1483 1477 1478 1479 1481 1483 1484 1487 1489 1491 1493 1496 1499 1502 1506 1510 1514 1518 1523 1527 1532 1535 1539 1542 1544 1546 1548 1550 1552 1553 1555 1556 1557 1559 1560 1561 1562 1563 1565 1566 1567 1568
1507 1505 1501 1495 1482 1480 1482 1482 1479 1479 1480 1482 1483 1485 1487 1488 1490 1492 1495 1498 1501 1505 1509 1513 1518 1521 1526 1530 1534 1537 1540 1543 1545 1547 1550 1551 1553 1554 1555 1557 1558 1559 1561 1562 1563 1564 1566 1567 1568
1498 1501 1502 1491 1481 1482 1483 1482 1480 1480 1481 1482 1483 1484 1486 1488 1490 1492 1495 1498 1500 1504 1507 1511 1516 1520 1524 1528 1532 1536 1539 1542 1544 1547 1549 1551 1552 1553 1555 1556 1558 1559 1560 1561 1562 1564 1565 1567 1568
1496 1500 1498 1487 1480 1482 1485 1484 1480 1480 1480 1480 1481 1483 1485 1487 1489 1491 1493 1496 1499 1502 1506 1509 1513 1518 1523 1527 1531 1535 1538 1541 1544 1546 1549 1550 1552 1553 1554 1556 1557 1558 1560 1561 1562 1563 1565 1566 1568
1493 1496 1494 1491 1484 1484 1487 1488 1483 1480 1480 1481 1481 1482 1484 1485 1486 1489 1491 1494 1497 1500 1504 1507 1512 1516 1521 1526 1530 1533 1537 1540 1543 1545 1547 1550 1551 1553 1554 1555 1557 1558 1559 1560 1561 1563 1564 1566 1567
1494 1484 1484 1486 1493 1499 1495 1504 1488 1483 1481 1480 1480 1481 1482 1484 1485 1488 1490 1492 1495 1499 1502 1506 1510 1515 1520 1524 1528 1532 1535 1538 1541 1544 1547 1549 1551 1552 1554 1555 1556 1558 1559 1560 1561 1562 1563 1565 1566
1483 1480 1483 1487 1494 1500 1499 1503 1495 1484 1483 1479 1478 1478 1480 1482 1484 1486 1489 1491 1494 1497 1501 1505 1509 1514 1518 1523 1527 1531 1534 1538 1541 1544 1546 1548 1550 1551 1553 1555 1556 1557 1558 1559 1560 1561 1563 1564 1565
1476 1483 1489 1497 1503 1510 1501 1504 1499 1487 1479 1475 1475 1476 1478 1480 1482 1485 1488 1491 1493 1496 1499 1503 1507 1512 1517 1521 1525 1529 1533 1537 1540 1543 1545 1547 1549 1551 1552 1554 1555 1556 1557 1558 1559 1560 1562 1563 1564
1478 1495 1513 1513 1520 1514 1501 1502 1496 1474 1470 1470 1470 1472 1475 1478 1480 1483 1486 1489 1492 1495 1497 1501 1505 1510 1515 1519 1523 1527 1532 1536 1539 1542 1544 1546 1549 1550 1552 1553 1555 1556 1557 1558 1558 1560 1561 1562 1563
1479 1489 1510 1519 1521 1513 1502 1502 1483 1468 1467 1467 1467 1469 1472 1475 1478 1482 1485 1488 1491 1494 1497 1500 1504 1508 1513 1517 1521 1526 1530 1534 1538 1541 1543 1546 1548 1550 1552 1553 1554 1555 1556 1557 1557 1558 1559 1560 1561
1479 1486 1486 1504 1509 1514 1506 1494 1476 1465 1466 1466 1467 1468 1470 1473 1476 1480 1484 1487 1490 1493 1496 1500 1503 1507 1512 1516 1520 1524 1528 1532 1536 1539 1542 1545 1547 1549 1551 1552 1553 1554 1555 1556 1556 1557 1558 1559 1560
1467 1478 1493 1504 1515 1516 1504 1497 1488 1470 1467 1466 1466 1467 1469 1472 1476 1479 1483 1486 1490 1493 1497 1500 1503 1507 1511 1515 1519 1523 1527 1531 1534 1538 1541 1543 1546 1548 1549 1551 1552 1553 1554 1554 1555 1556 1556 1557 1558
1473 1479 1486 1499 1501 1512 1513 1498 1467 1463 1462 1463 1464 1466 1468 1471 1475 1478 1482 1485 1489 1493 1496 1499 1503 1506 1510 1514 1518 1521 1525 1529 1532 1535 1539 1542 1544 1546 1548 1549 1550 1551 1552 1553 1553 1554 1554 1555 1555
1463 1470 1481 1493 1498 1502 1505 1492 1456 1457 1457 1460 1462 1464 1467 1470 1474 1477 1481 1484 1488 1491 1495 1498 1502 1505 1509 1513 1517 1520 1523 1527 1530 1533 1536 1539 1541 1543 1545 1547 1548 1549 1549 1550 1551 1551 1552 1552 1552